Time,TemperatureF,DewpointF,PressureIn,WindDirection,WindDirectionDegrees,WindSpeedMPH,WindSpeedGustMPH,Humidity,HourlyPrecipIn,Conditions,Clouds,dailyrainin,SolarRadiationWatts/m^2,SoftwareType,DateUTC
2013-03-15 00:00:00,37.8,18.3,30.05,NNE,20,6.0,8.0,45,0.00,,,0.00,0,Wunderground v.1.15,2013-03-15 04:00:00,
2013-03-15 00:05:00,37.6,18.7,30.05,NNE,16,5.0,8.0,46,0.00,,,0.00,0,Wunderground v.1.15,2013-03-15 04:05:00,
2013-03-15 00:15:00,37.3,18.4,30.05,NNE,17,4.0,4.0,46,0.00,,,0.00,0,Wunderground v.1.15,2013-03-15 04:15:00,
2013-03-15 00:25:00,36.9,19.0,30.06,NNE,18,3.0,5.0,48,0.00,,,0.00,0,Wunderground v.1.15,2013-03-15 04:25:00,
2013-03-15 00:35:00,36.6,19.2,30.06,NNE,18,4.0,5.0,49,0.00,,,0.00,0,Wunderground v.1.15,2013-03-15 04:35:00,
2013-03-15 00:45:00,36.5,19.6,30.06,NNE,16,6.0,7.0,50,0.00,,,0.00,0,Wunderground v.1.15,2013-03-15 04:45:00,
2013-03-15 00:55:00,36.2,19.3,30.06,NNE,17,5.0,9.0,50,0.00,,,0.00,0,Wunderground v.1.15,2013-03-15 04:55:00,
2013-03-15 01:00:00,36.3,19.4,30.05,NNE,21,6.0,6.0,50,0.00,,,0.00,0,Wunderground v.1.15,2013-03-15 05:00:00,
2013-03-15 01:10:00,36.4,19.5,30.06,NNE,33,5.0,5.0,50,0.00,,,0.00,0,Wunderground v.1.15,2013-03-15 05:10:00,
2013-03-15 01:20:00,36.4,19.5,30.06,NNE,15,5.0,6.0,50,0.00,,,0.00,0,Wunderground v.1.15,2013-03-15 05:20:00,
2013-03-15 01:30:00,36.3,19.4,30.06,NNE,17,5.0,5.0,50,0.00,,,0.00,0,Wunderground v.1.15,2013-03-15 05:30:00,
2013-03-15 01:40:00,36.3,19.4,30.06,NNE,20,5.0,10.0,50,0.00,,,0.00,0,Wunderground v.1.15,2013-03-15 05:40:00,
2013-03-15 01:50:00,36.2,19.8,30.06,NNE,20,5.0,5.0,51,0.00,,,0.00,0,Wunderground v.1.15,2013-03-15 05:50:00,
2013-03-15 02:00:00,36.1,19.7,30.07,NNE,20,4.0,4.0,51,0.00,,,0.00,0,Wunderground v.1.15,2013-03-15 06:00:00,
2013-03-15 02:10:00,35.8,19.9,30.06,NNE,20,3.0,3.0,52,0.00,,,0.00,0,Wunderground v.1.15,2013-03-15 06:10:00,
2013-03-15 02:20:00,35.6,19.7,30.06,NNE,19,4.0,4.0,52,0.00,,,0.00,0,Wunderground v.1.15,2013-03-15 06:20:00,
2013-03-15 02:25:00,35.5,19.6,30.06,NNE,19,4.0,5.0,52,0.00,,,0.00,0,Wunderground v.1.15,2013-03-15 06:25:00,
2013-03-15 02:30:00,35.4,19.9,30.06,NNE,19,5.0,5.0,53,0.00,,,0.00,0,Wunderground v.1.15,2013-03-15 06:30:00,
2013-03-15 02:35:00,35.3,19.9,30.06,NNE,19,4.0,5.0,53,0.00,,,0.00,0,Wunderground v.1.15,2013-03-15 06:35:00,
2013-03-15 02:40:00,35.2,20.2,30.06,NNE,19,4.0,4.0,54,0.00,,,0.00,0,Wunderground v.1.15,2013-03-15 06:40:00,
2013-03-15 02:45:00,35.0,20.0,30.06,NNE,19,3.0,4.0,54,0.00,,,0.00,0,Wunderground v.1.15,2013-03-15 06:45:00,
2013-03-15 02:50:00,34.9,19.9,30.06,NNE,19,3.0,3.0,54,0.00,,,0.00,0,Wunderground v.1.15,2013-03-15 06:50:00,
2013-03-15 03:00:00,34.6,20.1,30.06,NNE,19,2.0,2.0,55,0.00,,,0.00,0,Wunderground v.1.15,2013-03-15 07:00:00,
2013-03-15 03:10:00,34.6,20.1,30.06,NNE,19,2.0,4.0,55,0.00,,,0.00,0,Wunderground v.1.15,2013-03-15 07:10:00,
2013-03-15 03:20:00,34.4,20.3,30.06,NNE,19,2.0,2.0,56,0.00,,,0.00,0,Wunderground v.1.15,2013-03-15 07:20:00,
2013-03-15 03:25:00,34.4,20.3,30.06,NNE,19,2.0,2.0,56,0.00,,,0.00,0,Wunderground v.1.15,2013-03-15 07:25:00,
2013-03-15 03:30:00,34.3,20.2,30.06,NNE,19,2.0,2.0,56,0.00,,,0.00,0,Wunderground v.1.15,2013-03-15 07:30:00,
2013-03-15 03:40:00,34.1,20.4,30.06,NNE,19,2.0,4.0,57,0.00,,,0.00,0,Wunderground v.1.15,2013-03-15 07:40:00,
2013-03-15 03:50:00,33.9,20.3,30.05,NNE,19,4.0,4.0,57,0.00,,,0.00,0,Wunderground v.1.15,2013-03-15 07:50:00,
2013-03-15 04:00:00,33.7,20.5,30.06,NNE,19,4.0,5.0,58,0.00,,,0.00,0,Wunderground v.1.15,2013-03-15 08:00:00,
2013-03-15 04:10:00,33.5,20.3,30.06,NNE,19,4.0,4.0,58,0.00,,,0.00,0,Wunderground v.1.15,2013-03-15 08:10:00,
2013-03-15 04:20:00,33.5,20.3,30.06,NNE,19,4.0,4.0,58,0.00,,,0.00,0,Wunderground v.1.15,2013-03-15 08:20:00,
2013-03-15 04:30:00,33.3,20.1,30.05,NNE,19,3.0,3.0,58,0.00,,,0.00,0,Wunderground v.1.15,2013-03-15 08:30:00,
2013-03-15 04:40:00,33.2,20.0,30.05,NNE,19,2.0,3.0,58,0.00,,,0.00,0,Wunderground v.1.15,2013-03-15 08:40:00,
2013-03-15 04:50:00,33.2,20.0,30.06,NNE,19,2.0,2.0,58,0.00,,,0.00,0,Wunderground v.1.15,2013-03-15 08:50:00,
2013-03-15 05:00:00,33.0,20.2,30.06,NNE,19,1.0,2.0,59,0.00,,,0.00,0,Wunderground v.1.15,2013-03-15 09:00:00,
2013-03-15 05:10:00,32.9,20.1,30.06,NNE,19,1.0,2.0,59,0.00,,,0.00,0,Wunderground v.1.15,2013-03-15 09:10:00,
2013-03-15 05:20:00,32.7,19.9,30.06,NNE,19,0.0,1.0,59,0.00,,,0.00,0,Wunderground v.1.15,2013-03-15 09:20:00,
2013-03-15 05:30:00,32.5,20.1,30.06,NNE,19,0.0,1.0,60,0.00,,,0.00,0,Wunderground v.1.15,2013-03-15 09:30:00,
2013-03-15 05:35:00,32.3,20.0,30.06,NNE,19,0.0,1.0,60,0.00,,,0.00,0,Wunderground v.1.15,2013-03-15 09:35:00,
2013-03-15 05:45:00,32.1,20.2,30.07,NNE,19,0.0,0.0,61,0.00,,,0.00,0,Wunderground v.1.15,2013-03-15 09:45:00,
2013-03-15 05:50:00,32.0,20.4,30.07,NNE,19,0.0,0.0,62,0.00,,,0.00,0,Wunderground v.1.15,2013-03-15 09:50:00,
2013-03-15 06:00:00,31.7,20.2,30.07,NNE,19,0.0,0.0,62,0.00,,,0.00,0,Wunderground v.1.15,2013-03-15 10:00:00,
2013-03-15 06:10:00,31.7,20.5,30.07,NNE,19,0.0,0.0,63,0.00,,,0.00,0,Wunderground v.1.15,2013-03-15 10:10:00,
2013-03-15 06:15:00,31.6,20.4,30.08,NNE,19,0.0,0.0,63,0.00,,,0.00,0,Wunderground v.1.15,2013-03-15 10:15:00,
2013-03-15 06:25:00,31.5,20.3,30.08,NNE,19,0.0,0.0,63,0.00,,,0.00,0,Wunderground v.1.15,2013-03-15 10:25:00,
2013-03-15 06:30:00,31.5,20.3,30.08,NNE,19,0.0,1.0,63,0.00,,,0.00,0,Wunderground v.1.15,2013-03-15 10:30:00,
2013-03-15 06:35:00,31.5,20.3,30.08,NNE,19,1.0,1.0,63,0.00,,,0.00,0,Wunderground v.1.15,2013-03-15 10:35:00,
2013-03-15 06:45:00,31.5,20.3,30.08,NNE,19,1.0,2.0,63,0.00,,,0.00,0,Wunderground v.1.15,2013-03-15 10:45:00,
2013-03-15 06:50:00,31.5,20.3,30.08,NNE,19,1.0,2.0,63,0.00,,,0.00,0,Wunderground v.1.15,2013-03-15 10:50:00,
2013-03-15 07:00:00,31.4,20.6,30.08,NNE,19,1.0,1.0,64,0.00,,,0.00,0,Wunderground v.1.15,2013-03-15 11:00:00,
2013-03-15 07:10:00,31.3,20.5,30.08,NNE,19,1.0,2.0,64,0.00,,,0.00,0,Wunderground v.1.15,2013-03-15 11:10:00,
2013-03-15 07:20:00,31.2,20.8,30.08,NNE,19,2.0,2.0,65,0.00,,,0.00,14,Wunderground v.1.15,2013-03-15 11:20:00,
2013-03-15 07:30:00,31.3,20.9,30.08,NNE,19,2.0,2.0,65,0.00,,,0.00,26,Wunderground v.1.15,2013-03-15 11:30:00,
2013-03-15 07:35:00,31.4,21.0,30.08,NNE,19,2.0,2.0,65,0.00,,,0.00,32,Wunderground v.1.15,2013-03-15 11:35:00,
2013-03-15 07:40:00,31.6,20.8,30.08,NNE,19,2.0,3.0,64,0.00,,,0.00,47,Wunderground v.1.15,2013-03-15 11:40:00,
2013-03-15 07:45:00,31.8,21.0,30.08,NNE,19,3.0,3.0,64,0.00,,,0.00,58,Wunderground v.1.15,2013-03-15 11:45:00,
2013-03-15 07:50:00,32.1,21.3,30.08,NNE,19,3.0,3.0,64,0.00,,,0.00,63,Wunderground v.1.15,2013-03-15 11:50:00,
2013-03-15 08:00:00,32.6,21.4,30.09,NNE,19,2.0,2.0,63,0.00,,,0.00,62,Wunderground v.1.15,2013-03-15 12:00:00,
2013-03-15 08:10:00,33.0,21.4,30.09,NNE,19,2.0,4.0,62,0.00,,,0.00,76,Wunderground v.1.15,2013-03-15 12:10:00,
2013-03-15 08:15:00,33.2,21.6,30.08,NNE,19,3.0,4.0,62,0.00,,,0.00,93,Wunderground v.1.15,2013-03-15 12:15:00,
2013-03-15 08:20:00,33.5,21.9,30.09,NNE,19,3.0,3.0,62,0.00,,,0.00,125,Wunderground v.1.15,2013-03-15 12:20:00,
2013-03-15 08:30:00,34.4,21.9,30.08,NNE,19,3.0,4.0,60,0.00,,,0.00,185,Wunderground v.1.15,2013-03-15 12:30:00,
2013-03-15 08:35:00,35.0,22.1,30.08,NNE,19,4.0,5.0,59,0.00,,,0.00,199,Wunderground v.1.15,2013-03-15 12:35:00,
2013-03-15 08:40:00,35.5,22.6,30.08,NNE,18,4.0,4.0,59,0.00,,,0.00,253,Wunderground v.1.15,2013-03-15 12:40:00,
2013-03-15 08:50:00,36.3,22.5,30.08,NNE,15,4.0,6.0,57,0.00,,,0.00,225,Wunderground v.1.15,2013-03-15 12:50:00,
2013-03-15 08:55:00,36.5,22.7,30.08,North,11,5.0,7.0,57,0.00,,,0.00,288,Wunderground v.1.15,2013-03-15 12:55:00,
2013-03-15 09:00:00,37.0,22.7,30.08,NNW,344,5.0,5.0,56,0.00,,,0.00,329,Wunderground v.1.15,2013-03-15 13:00:00,
2013-03-15 09:10:00,37.8,23.1,30.08,North,355,5.0,7.0,55,0.00,,,0.00,283,Wunderground v.1.15,2013-03-15 13:10:00,
2013-03-15 09:20:00,38.3,23.5,30.08,North,351,6.0,6.0,55,0.00,,,0.00,431,Wunderground v.1.15,2013-03-15 13:20:00,
2013-03-15 09:30:00,39.5,23.8,30.08,NNW,348,5.0,8.0,53,0.00,,,0.00,360,Wunderground v.1.15,2013-03-15 13:30:00,
2013-03-15 09:35:00,39.8,24.0,30.07,North,355,6.0,8.0,53,0.00,,,0.00,258,Wunderground v.1.15,2013-03-15 13:35:00,
2013-03-15 09:40:00,40.0,23.8,30.07,North,355,6.0,9.0,52,0.00,,,0.00,320,Wunderground v.1.15,2013-03-15 13:40:00,